Time,TemperatureF,DewpointF,PressureIn,WindDirection,WindDirectionDegrees,WindSpeedMPH,WindSpeedGustMPH,Humidity,HourlyPrecipIn,Conditions,Clouds,dailyrainin,SoftwareType,DateUTC
2016-07-27 00:08:00,75.8,74.7,30.01,NNW,327,0.0,0.0,96,0.00,,,-99.99,HOBO +U30 +Weather +,2016-07-27 04:08:00,
2016-07-27 00:18:00,75.4,74.5,30.01,NNW,327,0.0,0.7,96,0.00,,,-99.99,HOBO +U30 +Weather +,2016-07-27 04:18:00,
2016-07-27 00:28:00,75.2,74.3,30.01,NNW,327,0.0,1.1,97,0.00,,,-99.99,HOBO +U30 +Weather +,2016-07-27 04:28:00,
2016-07-27 00:38:00,75.2,74.2,30.01,NNW,327,0.0,0.7,96,0.00,,,-99.99,HOBO +U30 +Weather +,2016-07-27 04:38:00,
2016-07-27 00:48:00,75.0,74.1,30.01,NNW,330,0.0,1.8,96,0.00,,,-99.99,HOBO +U30 +Weather +,2016-07-27 04:48:00,
2016-07-27 00:58:00,75.0,74.1,30.01,North,350,0.7,2.2,97,0.00,,,-99.99,HOBO +U30 +Weather +,2016-07-27 04:58:00,
2016-07-27 01:08:00,75.0,74.0,30.01,North,6,1.1,2.2,96,0.00,,,-99.99,HOBO +U30 +Weather +,2016-07-27 05:08:00,
2016-07-27 01:18:00,74.8,73.7,30.00,NNE,21,2.2,3.4,96,0.00,,,-99.99,HOBO +U30 +Weather +,2016-07-27 05:18:00,
2016-07-27 01:28:00,75.1,73.6,30.00,NNE,22,0.7,2.9,95,0.00,,,-99.99,HOBO +U30 +Weather +,2016-07-27 05:28:00,
2016-07-27 01:38:00,75.4,73.7,30.00,NNE,21,0.0,2.2,94,0.00,,,-99.99,HOBO +U30 +Weather +,2016-07-27 05:38:00,
2016-07-27 01:48:00,75.4,73.8,30.00,NNE,21,0.0,1.1,94,0.00,,,-99.99,HOBO +U30 +Weather +,2016-07-27 05:48:00,
2016-07-27 01:58:00,75.3,73.8,30.00,NNE,22,2.2,3.4,95,0.00,,,-99.99,HOBO +U30 +Weather +,2016-07-27 05:58:00,
2016-07-27 02:08:00,75.0,73.5,30.00,NE,35,2.2,4.0,94,0.00,,,-99.99,HOBO +U30 +Weather +,2016-07-27 06:08:00,
2016-07-27 02:18:00,74.9,73.5,30.00,NNE,28,1.1,3.4,95,0.00,,,-99.99,HOBO +U30 +Weather +,2016-07-27 06:18:00,
2016-07-27 02:28:00,74.6,73.5,29.99,NNE,27,0.0,1.8,96,0.00,,,-99.99,HOBO +U30 +Weather +,2016-07-27 06:28:00,
2016-07-27 02:38:00,74.7,73.5,30.00,NNE,27,1.1,2.9,95,0.00,,,-99.99,HOBO +U30 +Weather +,2016-07-27 06:38:00,
2016-07-27 02:48:00,74.6,73.7,30.00,NNE,27,0.0,1.8,97,0.00,,,-99.99,HOBO +U30 +Weather +,2016-07-27 06:48:00,
2016-07-27 02:58:00,74.0,73.5,29.99,NNE,22,0.7,1.8,98,0.00,,,-99.99,HOBO +U30 +Weather +,2016-07-27 06:58:00,
2016-07-27 03:18:00,73.6,73.4,29.99,North,351,0.7,2.2,99,0.00,,,-99.99,HOBO +U30 +Weather +,2016-07-27 07:18:00,
2016-07-27 03:28:00,73.3,73.3,29.99,NNW,338,0.7,3.4,99,0.00,,,-99.99,HOBO +U30 +Weather +,2016-07-27 07:28:00,
2016-07-27 03:39:00,73.2,73.2,30.00,NNW,330,0.0,1.1,99,0.00,,,-99.99,HOBO +U30 +Weather +,2016-07-27 07:39:00,
2016-07-27 03:48:00,73.1,73.1,30.00,NNW,330,0.7,2.2,99,0.00,,,-99.99,HOBO +U30 +Weather +,2016-07-27 07:48:00,
2016-07-27 03:58:00,72.9,72.9,29.99,NNW,337,0.0,1.8,99,0.00,,,-99.99,HOBO +U30 +Weather +,2016-07-27 07:58:00,
2016-07-27 04:08:00,72.9,72.8,29.99,NNW,337,0.7,2.2,99,0.00,,,-99.99,HOBO +U30 +Weather +,2016-07-27 08:08:00,
2016-07-27 04:18:00,72.8,72.5,29.99,NNE,22,1.1,3.4,98,0.00,,,-99.99,HOBO +U30 +Weather +,2016-07-27 08:18:00,
2016-07-27 04:28:00,73.3,72.8,30.00,NE,42,0.0,1.1,98,0.00,,,-99.99,HOBO +U30 +Weather +,2016-07-27 08:28:00,
2016-07-27 04:38:00,73.1,72.6,29.99,NE,42,0.0,1.8,98,0.00,,,-99.99,HOBO +U30 +Weather +,2016-07-27 08:38:00,
2016-07-27 04:48:00,73.2,72.4,30.00,NE,42,0.0,0.0,97,0.00,,,-99.99,HOBO +U30 +Weather +,2016-07-27 08:48:00,
2016-07-27 04:58:00,73.1,72.4,29.99,NE,42,0.0,0.0,97,0.00,,,-99.99,HOBO +U30 +Weather +,2016-07-27 08:58:00,
2016-07-27 05:08:00,73.5,72.5,29.99,NE,42,0.0,0.0,96,0.00,,,-99.99,HOBO +U30 +Weather +,2016-07-27 09:08:00,
2016-07-27 05:18:00,73.8,72.8,29.98,NE,42,0.0,1.1,96,0.00,,,-99.99,HOBO +U30 +Weather +,2016-07-27 09:18:00,
2016-07-27 05:28:00,73.5,72.7,29.98,NNE,18,1.8,2.9,97,0.00,,,-99.99,HOBO +U30 +Weather +,2016-07-27 09:28:00,
2016-07-27 05:38:00,72.6,72.2,29.99,North,355,2.2,3.4,98,0.00,,,-99.99,HOBO +U30 +Weather +,2016-07-27 09:38:00,
2016-07-27 05:48:00,72.6,72.2,29.99,North,355,1.1,2.9,98,0.00,,,-99.99,HOBO +U30 +Weather +,2016-07-27 09:48:00,
2016-07-27 05:58:00,72.9,72.4,29.99,North,355,0.7,1.8,97,0.00,,,-99.99,HOBO +U30 +Weather +,2016-07-27 09:58:00,
2016-07-27 06:08:00,73.3,72.6,29.99,North,355,0.0,1.8,97,0.00,,,-99.99,HOBO +U30 +Weather +,2016-07-27 10:08:00,
2016-07-27 06:18:00,73.5,72.8,29.99,North,355,0.0,1.1,97,0.00,,,-99.99,HOBO +U30 +Weather +,2016-07-27 10:18:00,
2016-07-27 06:29:00,73.4,72.8,29.99,North,355,0.0,1.1,97,0.00,,,-99.99,HOBO +U30 +Weather +,2016-07-27 10:29:00,
2016-07-27 06:38:00,73.3,72.7,29.99,North,355,0.0,1.1,97,0.00,,,-99.99,HOBO +U30 +Weather +,2016-07-27 10:38:00,
2016-07-27 06:48:00,73.1,72.6,30.00,North,3,1.1,2.9,98,0.00,,,-99.99,HOBO +U30 +Weather +,2016-07-27 10:48:00,
2016-07-27 06:58:00,72.4,72.4,30.00,North,3,2.2,3.4,99,0.00,,,-99.99,HOBO +U30 +Weather +,2016-07-27 10:58:00,
2016-07-27 07:08:00,72.1,72.1,30.01,North,6,2.2,4.0,100,0.00,,,-99.99,HOBO +U30 +Weather +,2016-07-27 11:08:00,
2016-07-27 07:18:00,72.0,72.0,30.01,North,8,0.0,1.8,100,0.00,,,-99.99,HOBO +U30 +Weather +,2016-07-27 11:18:00,
2016-07-27 07:28:00,72.4,72.4,30.01,North,8,1.1,2.2,99,0.00,,,-99.99,HOBO +U30 +Weather +,2016-07-27 11:28:00,
2016-07-27 07:38:00,73.0,72.7,30.01,NNE,25,2.2,4.0,98,0.00,,,-99.99,HOBO +U30 +Weather +,2016-07-27 11:38:00,
2016-07-27 07:48:00,73.0,72.6,30.01,NNE,24,1.1,4.0,98,0.00,,,-99.99,HOBO +U30 +Weather +,2016-07-27 11:48:00,
2016-07-27 07:58:00,73.1,72.6,30.01,NNE,25,1.8,4.0,98,0.00,,,-99.99,HOBO +U30 +Weather +,2016-07-27 11:58:00,
2016-07-27 08:08:00,73.2,72.7,30.02,NNE,13,2.2,4.0,98,0.00,,,-99.99,HOBO +U30 +Weather +,2016-07-27 12:08:00,
2016-07-27 08:18:00,73.1,72.9,30.02,North,0,1.1,2.9,99,0.00,,,-99.99,HOBO +U30 +Weather +,2016-07-27 12:18:00,
2016-07-27 08:28:00,72.9,72.5,30.02,North,352,0.7,2.2,98,0.00,,,-99.99,HOBO +U30 +Weather +,2016-07-27 12:28:00,
2016-07-27 08:38:00,73.3,72.7,30.02,North,6,0.7,2.2,97,0.00,,,-99.99,HOBO +U30 +Weather +,2016-07-27 12:38:00,
2016-07-27 08:48:00,73.1,72.9,30.03,North,351,0.7,2.2,99,0.00,,,-99.99,HOBO +U30 +Weather +,2016-07-27 12:48:00,
2016-07-27 08:58:00,72.8,72.5,30.03,NNW,329,1.8,4.0,98,0.00,,,-99.99,HOBO +U30 +Weather +,2016-07-27 12:58:00,
2016-07-27 09:08:00,72.9,72.4,30.02,North,350,2.2,5.1,98,0.00,,,-99.99,HOBO +U30 +Weather +,2016-07-27 13:08:00,
2016-07-27 09:18:00,73.1,72.5,30.02,North,355,1.8,4.0,97,0.00,,,-99.99,HOBO +U30 +Weather +,2016-07-27 13:18:00,
2016-07-27 09:28:00,73.3,72.4,30.02,North,0,2.2,4.0,96,0.00,,,-99.99,HOBO +U30 +Weather +,2016-07-27 13:28:00,
2016-07-27 09:38:00,73.8,72.8,30.02,North,355,1.1,3.4,96,0.00,,,-99.99,HOBO +U30 +Weather +,2016-07-27 13:38:00,
2016-07-27 09:48:00,74.0,73.2,30.01,NW,319,1.1,3.4,97,0.00,,,-99.99,HOBO +U30 +Weather +,2016-07-27 13:48:00,
2016-07-27 09:58:00,74.4,73.3,30.01,NW,309,0.7,3.4,96,0.00,,,-99.99,HOBO +U30 +Weather +,2016-07-27 13:58:00,
2016-07-27 10:08:00,74.6,73.3,30.02,NW,309,1.1,3.4,95,0.00,,,-99.99,HOBO +U30 +Weather +,2016-07-27 14:08:00,
2016-07-27 10:18:00,75.6,74.1,30.01,NW,309,0.0,1.8,94,0.00,,,-99.99,HOBO +U30 +Weather +,2016-07-27 14:18:00,
2016-07-27 10:28:00,77.1,74.9,30.01,NW,307,0.0,2.9,92,0.00,,,-99.99,HOBO +U30 +Weather +,2016-07-27 14:28:00,
2016-07-27 10:38:00,78.6,75.5,30.01,North,11,0.0,1.8,90,0.00,,,-99.99,HOBO +U30 +Weather +,2016-07-27 14:38:00,
2016-07-27 10:48:00,79.9,76.3,30.00,East,83,0.7,3.4,88,0.00,,,-99.99,HOBO +U30 +Weather +,2016-07-27 14:48:00,
2016-07-27 10:58:00,80.2,76.0,30.01,ENE,69,0.0,2.2,86,0.00,,,-99.99,HOBO +U30 +Weather +,2016-07-27 14:58:00,
2016-07-27 11:08:00,79.8,75.5,30.01,NNW,330,0.7,2.9,86,0.00,,,-99.99,HOBO +U30 +Weather +,2016-07-27 15:08:00,
2016-07-27 11:28:00,83.8,78.5,30.01,NNE,20,0.7,2.9,83,0.00,,,-99.99,HOBO +U30 +Weather +,2016-07-27 15:28:00,
2016-07-27 11:38:00,83.6,78.0,30.01,NE,42,1.8,4.5,83,0.00,,,-99.99,HOBO +U30 +Weather +,2016-07-27 15:38:00,
2016-07-27 11:48:00,81.4,76.4,30.01,WNW,298,4.0,6.7,84,0.00,,,-99.99,HOBO +U30 +Weather +,2016-07-27 15:48:00,
2016-07-27 11:58:00,81.4,76.4,30.01,NW,307,3.4,7.4,84,0.00,,,-99.99,HOBO +U30 +Weather +,2016-07-27 15:58:00,
2016-07-27 12:08:00,82.5,77.5,30.01,WNW,295,2.2,5.6,84,0.00,,,-99.99,HOBO +U30 +Weather +,2016-07-27 16:08:00,
2016-07-27 12:18:00,82.1,77.4,30.01,WNW,293,4.0,6.3,85,0.00,,,-99.99,HOBO +U30 +Weather +,2016-07-27 16:18:00,
2016-07-27 12:28:00,83.1,78.3,30.01,NW,306,4.5,8.5,85,0.00,,,-99.99,HOBO +U30 +Weather +,2016-07-27 16:28:00,
2016-07-27 12:38:00,83.9,78.5,30.00,WNW,293,2.9,7.4,83,0.00,,,-99.99,HOBO +U30 +Weather +,2016-07-27 16:38:00,
2016-07-27 12:48:00,84.1,78.1,29.99,NNW,329,2.2,8.5,82,0.00,,,-99.99,HOBO +U30 +Weather +,2016-07-27 16:48:00,
2016-07-27 12:58:00,83.2,77.1,29.99,WNW,298,4.5,8.5,81,0.00,,,-99.99,HOBO +U30 +Weather +,2016-07-27 16:58:00,
2016-07-27 13:08:00,85.1,78.9,29.99,WNW,282,5.1,10.7,81,0.00,,,-99.99,HOBO +U30 +Weather +,2016-07-27 17:08:00,
2016-07-27 13:18:00,85.1,78.7,29.99,WNW,286,5.1,11.2,81,0.00,,,-99.99,HOBO +U30 +Weather +,2016-07-27 17:18:00,
2016-07-27 13:28:00,85.1,78.6,29.99,WNW,292,7.4,10.7,80,0.00,,,-99.99,HOBO +U30 +Weather +,2016-07-27 17:28:00,
2016-07-27 13:38:00,84.2,77.5,29.99,NW,306,6.3,11.9,80,0.00,,,-99.99,HOBO +U30 +Weather +,2016-07-27 17:38:00,
2016-07-27 13:48:00,84.9,77.9,29.99,WNW,292,7.8,11.9,79,0.00,,,-99.99,HOBO +U30 +Weather +,2016-07-27 17:48:00,
2016-07-27 13:58:00,85.8,77.6,29.99,West,271,5.6,10.7,76,0.00,,,-99.99,HOBO +U30 +Weather +,2016-07-27 17:58:00,
2016-07-27 14:08:00,86.2,77.5,29.98,WNW,293,6.7,12.3,75,0.00,,,-99.99,HOBO +U30 +Weather +,2016-07-27 18:08:00,
2016-07-27 14:18:00,85.4,76.3,29.98,WNW,302,6.7,11.2,74,0.00,,,-99.99,HOBO +U30 +Weather +,2016-07-27 18:18:00,
2016-07-27 14:28:00,87.0,77.6,29.98,West,261,4.0,9.6,73,0.00,,,-99.99,HOBO +U30 +Weather +,2016-07-27 18:28:00,
2016-07-27 14:38:00,86.9,77.6,29.98,West,279,5.1,9.6,73,0.00,,,-99.99,HOBO +U30 +Weather +,2016-07-27 18:38:00,
2016-07-27 14:48:00,86.3,77.3,29.98,WSW,244,5.1,7.8,74,0.00,,,-99.99,HOBO +U30 +Weather +,2016-07-27 18:48:00,
2016-07-27 14:58:00,85.7,77.3,29.98,West,261,6.3,8.5,75,0.00,,,-99.99,HOBO +U30 +Weather +,2016-07-27 18:58:00,
2016-07-27 15:08:00,86.3,78.2,29.98,WSW,256,5.6,8.5,77,0.00,,,-99.99,HOBO +U30 +Weather +,2016-07-27 19:08:00,
2016-07-27 15:18:00,86.5,78.1,29.98,West,263,5.6,8.9,75,0.00,,,-99.99,HOBO +U30 +Weather +,2016-07-27 19:18:00,
2016-07-27 15:28:00,87.3,78.2,29.97,WSW,250,4.5,8.5,74,0.00,,,-99.99,HOBO +U30 +Weather +,2016-07-27 19:28:00,
2016-07-27 15:38:00,88.3,78.6,29.97,WSW,237,4.5,10.7,73,0.00,,,-99.99,HOBO +U30 +Weather +,2016-07-27 19:38:00,
2016-07-27 15:48:00,88.9,78.5,29.97,West,271,6.7,11.9,71,0.00,,,-99.99,HOBO +U30 +Weather +,2016-07-27 19:48:00,
2016-07-27 15:59:00,86.6,78.0,29.96,West,268,4.5,7.8,75,0.00,,,-99.99,HOBO +U30 +Weather +,2016-07-27 19:59:00,
2016-07-27 16:08:00,87.4,77.8,29.96,WNW,288,5.6,7.8,73,0.00,,,-99.99,HOBO +U30 +Weather +,2016-07-27 20:08:00,
2016-07-27 16:18:00,86.5,77.9,29.96,West,281,3.4,6.3,75,0.00,,,-99.99,HOBO +U30 +Weather +,2016-07-27 20:18:00,
2016-07-27 16:28:00,87.6,78.6,29.95,West,275,4.5,8.9,74,0.00,,,-99.99,HOBO +U30 +Weather +,2016-07-27 20:28:00,
2016-07-27 16:38:00,87.1,77.4,29.95,WNW,284,3.4,6.7,73,0.00,,,-99.99,HOBO +U30 +Weather +,2016-07-27 20:38:00,
2016-07-27 16:48:00,88.8,78.3,29.95,WSW,251,5.1,9.6,71,0.00,,,-99.99,HOBO +U30 +Weather +,2016-07-27 20:48:00,
2016-07-27 16:58:00,87.5,77.1,29.95,West,268,5.6,9.6,71,0.00,,,-99.99,HOBO +U30 +Weather +,2016-07-27 20:58:00,
2016-07-27 17:08:00,86.3,77.4,29.95,WSW,257,5.6,9.6,74,0.00,,,-99.99,HOBO +U30 +Weather +,2016-07-27 21:08:00,
2016-07-27 17:18:00,88.4,79.4,29.95,WSW,248,4.0,7.4,74,0.00,,,-99.99,HOBO +U30 +Weather +,2016-07-27 21:18:00,
2016-07-27 17:28:00,88.5,78.5,29.94,SW,223,4.0,8.5,72,0.00,,,-99.99,HOBO +U30 +Weather +,2016-07-27 21:28:00,
2016-07-27 17:38:00,87.7,77.7,29.94,WNW,288,7.4,10.7,72,0.00,,,-99.99,HOBO +U30 +Weather +,2016-07-27 21:38:00,
2016-07-27 17:48:00,88.4,78.3,29.93,West,272,4.5,9.6,72,0.00,,,-99.99,HOBO +U30 +Weather +,2016-07-27 21:48:00,
2016-07-27 17:58:00,87.0,77.5,29.93,WNW,293,6.3,9.6,73,0.00,,,-99.99,HOBO +U30 +Weather +,2016-07-27 21:58:00,
2016-07-27 18:08:00,86.8,77.1,29.93,WNW,292,5.6,7.8,73,0.00,,,-99.99,HOBO +U30 +Weather +,2016-07-27 22:08:00,
2016-07-27 18:18:00,86.6,77.8,29.93,WNW,298,5.1,7.8,74,0.00,,,-99.99,HOBO +U30 +Weather +,2016-07-27 22:18:00,
2016-07-27 18:28:00,87.8,78.4,29.93,WSW,258,1.8,5.6,73,0.00,,,-99.99,HOBO +U30 +Weather +,2016-07-27 22:28:00,
2016-07-27 18:38:00,88.2,78.5,29.93,WSW,248,4.0,7.4,73,0.00,,,-99.99,HOBO +U30 +Weather +,2016-07-27 22:38:00,
2016-07-27 18:48:00,86.4,77.2,29.93,West,278,4.0,8.9,74,0.00,,,-99.99,HOBO +U30 +Weather +,2016-07-27 22:48:00,
2016-07-27 18:58:00,87.5,78.1,29.93,West,277,2.9,6.3,73,0.00,,,-99.99,HOBO +U30 +Weather +,2016-07-27 22:58:00,
2016-07-27 19:08:00,85.5,77.0,29.93,WSW,254,0.7,3.4,75,0.00,,,-99.99,HOBO +U30 +Weather +,2016-07-27 23:08:00,
2016-07-27 19:18:00,84.8,76.5,29.93,NW,309,4.5,7.4,75,0.00,,,-99.99,HOBO +U30 +Weather +,2016-07-27 23:18:00,
2016-07-27 19:28:00,84.5,76.6,29.93,WNW,299,4.0,5.6,77,0.00,,,-99.99,HOBO +U30 +Weather +,2016-07-27 23:28:00,
2016-07-27 19:38:00,84.8,77.0,29.92,WNW,296,2.9,5.1,77,0.00,,,-99.99,HOBO +U30 +Weather +,2016-07-27 23:38:00,
2016-07-27 19:48:00,84.9,77.0,29.92,WNW,293,4.0,5.6,77,0.00,,,-99.99,HOBO +U30 +Weather +,2016-07-27 23:48:00,
2016-07-27 19:58:00,84.5,76.9,29.92,WNW,295,4.0,6.3,78,0.00,,,-99.99,HOBO +U30 +Weather +,2016-07-27 23:58:00,
2016-07-27 20:08:00,83.5,76.6,29.91,WNW,302,4.0,5.6,79,0.00,,,-99.99,HOBO +U30 +Weather +,2016-07-28 00:08:00,
2016-07-27 20:18:00,83.3,76.9,29.91,NW,305,4.0,5.6,80,0.00,,,-99.99,HOBO +U30 +Weather +,2016-07-28 00:18:00,
2016-07-27 20:28:00,82.9,76.7,29.91,WNW,300,3.4,5.6,81,0.00,,,-99.99,HOBO +U30 +Weather +,2016-07-28 00:28:00,
2016-07-27 20:38:00,82.8,77.0,29.91,WNW,292,3.4,5.6,82,0.00,,,-99.99,HOBO +U30 +Weather +,2016-07-28 00:38:00,
2016-07-27 20:48:00,82.3,76.6,29.91,WNW,299,3.4,5.1,82,0.00,,,-99.99,HOBO +U30 +Weather +,2016-07-28 00:48:00,
2016-07-27 20:58:00,81.9,76.5,29.91,NW,309,3.4,5.6,83,0.00,,,-99.99,HOBO +U30 +Weather +,2016-07-28 00:58:00,
2016-07-27 21:09:00,81.5,76.2,29.91,NW,305,4.0,6.7,83,0.00,,,-99.99,HOBO +U30 +Weather +,2016-07-28 01:09:00,
2016-07-27 21:18:00,81.2,75.9,29.92,WNW,302,4.0,5.6,84,0.00,,,-99.99,HOBO +U30 +Weather +,2016-07-28 01:18:00,
2016-07-27 21:28:00,80.9,76.0,29.92,WNW,293,2.9,5.1,85,0.00,,,-99.99,HOBO +U30 +Weather +,2016-07-28 01:28:00,
2016-07-27 21:38:00,80.5,76.1,29.93,WNW,298,3.4,5.1,86,0.00,,,-99.99,HOBO +U30 +Weather +,2016-07-28 01:38:00,
2016-07-27 21:48:00,80.5,76.2,29.92,WNW,295,1.8,4.0,86,0.00,,,-99.99,HOBO +U30 +Weather +,2016-07-28 01:48:00,
2016-07-27 21:58:00,80.4,76.2,29.93,WNW,291,1.8,3.4,86,0.00,,,-99.99,HOBO +U30 +Weather +,2016-07-28 01:58:00,
2016-07-27 22:08:00,80.4,76.3,29.93,WNW,291,0.7,2.2,87,0.00,,,-99.99,HOBO +U30 +Weather +,2016-07-28 02:08:00,
2016-07-27 22:18:00,80.2,76.2,29.94,WNW,291,1.8,3.4,87,0.00,,,-99.99,HOBO +U30 +Weather +,2016-07-28 02:18:00,
2016-07-27 22:28:00,79.9,76.1,29.94,WNW,291,1.8,3.4,88,0.00,,,-99.99,HOBO +U30 +Weather +,2016-07-28 02:28:00,
2016-07-27 22:38:00,80.0,76.2,29.94,WNW,286,2.9,4.5,87,0.00,,,-99.99,HOBO +U30 +Weather +,2016-07-28 02:38:00,
2016-07-27 22:48:00,80.2,75.7,29.94,WNW,286,2.2,4.0,86,0.00,,,-99.99,HOBO +U30 +Weather +,2016-07-28 02:48:00,
2016-07-27 22:58:00,80.1,75.6,29.94,WNW,288,1.8,3.4,86,0.00,,,-99.99,HOBO +U30 +Weather +,2016-07-28 02:58:00,
2016-07-27 23:08:00,79.9,75.5,29.95,WNW,288,2.2,4.0,86,0.00,,,-99.99,HOBO +U30 +Weather +,2016-07-28 03:08:00,